Dewpoint
15 13 12 10 6 8 10 11 15 18 19 20 22 26 26 27 27 27 28 33 34 35 36 37 39 38 39 43 47 48 48 49 48 46 47 49 51 52 53 53 53 55 54 58 60 60 60 61 63 64 64 65 66 67 68 70 72 73 72 72 73 73 73 73 73 73 72 71 71 71 71 70 71 73 72 72 72 71 72 74 75 77 78 79 78 79
13 13 7 7 6 10 11 14 17 17 18 18 21 23 24 27 26 26 25 30 34 33 37 38 38 39 40 40 44 49 48 46 46 48 48 48 50 52 55 55 56 55 55 56 58 59 59 61 63 65 65 67 66 67 68 70 71 73 72 73 73 74 73 73 73 73 73 72 71 71 71 69 68 70 70 71 72 72 73 75 77 78 78 77 79 78
11 10 6 6 8 9 12 14 16 17 18 18 19 22 23 26 26 26 25 27 33 33 35 36 37 38 39 40 42 46 47 49 48 49 49 51 51 53 53 55 56 56 57 56 57 58 58 61 62 65 65 66 66 67 68 70 71 73 73 73 73 74 74 72 73 74 73 73 73 72 71 70 68 69 71 70 71 72 72 73 77 78 78 79 78 78
9 7 7 3 6 7 7 11 13 16 17 18 19 21 22 24 24 23 23 27 31 32 34 39 35 37 40 43 43 44 46 50 50 49 49 49 52 52 52 55 56 57 58 57 58 57 58 60 62 64 66 67 67 68 68 69 71 72 74 73 74 74 74 74 73 74 74 74 74 74 73 72 70 69 70 72 72 72 72 72 76 78 78 79 77 77
8 5 4 2 4 6 7 9 11 13 15 17 18 18 22 23 23 23 25 30 33 34 35 36 37 40 40 39 41 44 46 48 49 48 50 51 52 53 53 54 56 57 59 59 58 59 59 60 62 64 67 66 67 67 69 70 71 73 74 74 74 74 74 74 74 74 75 74 74 74 75 74 73 71 70 70 69 70 71 71 73 75 76 75 75 75
8 8 6 3 3 3 6 6 8 10 14 16 18 17 20 21 22 22 24 31 32 32 33 34 41 38 41 40 39 42 43 47 50 51 50 52 52 54 54 55 56 56 58 60 60 60 60 61 63 64 67 67 67 69 69 70 71 73 74 75 75 74 74 74 75 75 75 74 74 74 74 73 72 71 71 70 70 70 69 69 69 72 71 72 73 73
10 12 7 2 1 0 2 3 7 10 11 13 16 19 19 18 21 22 22 25 31 33 34 35 36 37 39 40 41 43 43 45 47 50 50 52 53 53 55 54 55 56 56 59 60 60 60 62 62 64 67 67 67 68 69 70 72 73 74 75 75 75 75 75 75 76 76 75 75 75 74 73 72 71 72 73 71 70 69 69 69 69 70 73 72 71
17 11 5 0 -1 -3 -0 2 5 6 9 11 15 17 19 20 19 20 21 24 29 32 33 35 35 37 37 37 41 41 41 43 47 48 50 48 53 51 54 53 56 55 56 57 61 61 62 63 62 63 65 67 66 68 69 69 71 73 74 75 76 76 75 75 75 75 76 75 75 75 74 73 72 71 72 73 74 72 71 68 69 69 69 72 73 70
19 14 6 4 6 -0 -4 -1 5 6 8 12 14 15 17 18 19 19 21 23 24 29 33 32 35 39 38 39 40 39 39 41 43 46 50 50 50 53 54 53 55 56 57 57 60 62 62 62 62 62 65 66 67 68 68 69 71 72 74 75 76 76 75 75 75 76 76 76 75 75 74 73 73 72 72 71 72 72 72 71 71 71 70 71 72 72
18 16 6 5 6 -1 -3 2 7 8 7 10 12 15 16 17 18 19 21 21 27 30 30 32 30 35 36 38 36 38 39 40 40 43 46 50 50 53 53 55 55 57 58 57 59 63 63 62 61 62 63 66 67 67 69 69 70 71 73 75 76 76 75 75 76 76 76 76 75 75 74 74 73 73 72 70 70 72 72 72 72 72 72 70 71 72
17 23 18 5 6 5 6 6 5 4 5 6 9 12 13 12 16 22 24 27 28 28 30 29 29 30 32 36 35 37 36 39 41 44 45 51 51 50 55 54 55 56 58 58 59 62 64 63 62 62 64 66 67 67 68 68 69 70 73 75 76 77 76 75 76 76 76 76 76 75 75 74 74 74 73 73 71 71 72 73 72 72 72 71 70 68
19 15 14 8 10 7 4 0 -2 -1 1 5 7 12 15 22 23 26 23 28 25 24 31 27 28 29 31 33 34 37 39 38 40 42 43 44 45 50 51 48 54 54 57 58 58 60 63 64 63 62 64 66 68 67 67 67 69 70 73 75 76 76 77 76 75 76 75 75 75 75 75 75 75 74 73 73 72 72 72 72 71 71 70 70 69 70
16 14 15 15 19 8 5 -2 -6 -3 -0 2 7 15 15 21 23 20 24 21 21 24 26 24 26 28 30 35 35 35 34 37 41 39 39 39 44 51 51 54 58 58 55 58 60 60 62 63 63 62 65 67 68 68 67 67 68 70 72 75 76 76 77 77 76 76 76 75 75 75 74 75 75 75 74 74 73 72 72 71 72 70 69 70 68 69
17 13 13 15 14 16 7 -4 -6 -6 -1 1 8 14 18 19 21 22 20 23 21 21 21 22 26 27 31 33 36 34 35 34 37 40 38 38 39 44 50 56 53 53 52 56 59 60 62 63 63 64 64 67 68 68 66 67 69 71 72 75 76 77 77 77 77 77 77 76 75 76 75 75 75 75 75 74 73 72 72 72 72 70 68 69 69 69
18 15 11 14 13 13 8 0 -8 -5 -0 -0 2 8 18 23 20 24 21 19 18 23 20 20 26 31 28 32 34 35 37 37 35 37 40 40 37 41 47 55 55 52 52 55 60 60 60 62 64 63 64 66 67 67 66 66 69 71 72 74 76 77 78 78 77 77 76 76 76 76 76 75 75 75 75 74 73 73 73 72 72 72 70 68 70 69
15 15 13 13 15 11 8 4 -3 -7 -3 -1 4 8 14 19 24 19 22 23 23 21 18 25 25 28 31 38 36 35 33 36 34 37 38 37 36 37 41 51 52 50 50 55 59 61 61 62 64 63 64 65 66 68 66 67 69 70 71 74 76 76 77 78 78 77 77 77 77 77 77 76 75 75 75 75 75 74 73 73 72 72 72 71 70 70
18 16 16 14 15 11 8 7 1 -5 -3 5 7 8 10 13 15 21 26 22 22 21 23 26 24 25 29 28 31 36 35 35 36 34 31 35 33 38 38 37 47 53 54 56 59 61 63 62 64 64 65 63 65 66 67 69 70 71 72 73 76 77 77 78 78 77 77 77 77 77 77 76 76 75 75 74 74 73 74 74 73 72 72 72 71 69
19 18 16 15 14 15 12 9 4 -5 -6 -0 2 2 6 8 11 21 19 26 22 19 23 17 20 23 23 24 32 34 34 34 35 34 31 33 32 31 36 41 44 48 54 58 61 63 63 63 64 64 64 64 65 67 69 71 71 71 71 74 75 76 77 77 78 77 77 77 77 77 77 77 76 75 75 74 74 75 74 74 74 73 72 72 70 68
17 17 17 15 15 17 14 10 6 0 -2 -5 -5 -0 -2 8 12 19 22 18 19 21 22 22 20 19 24 30 32 34 33 35 36 37 33 29 30 34 37 44 49 52 55 58 59 62 63 63 64 65 64 64 67 70 70 70 71 71 72 74 74 75 76 77 76 77 77 78 77 76 77 77 76 76 75 75 75 75 74 72 73 72 72 72 71 70
17 15 16 14 12 13 13 10 10 3 -1 -5 -6 -2 5 9 13 16 20 23 26 22 21 21 20 19 27 27 30 32 33 35 34 33 32 30 30 32 37 39 46 52 54 57 59 60 62 63 63 63 64 64 66 69 69 69 69 69 71 73 74 74 76 77 77 77 77 77 76 76 77 77 77 77 76 76 75 74 74 74 73 73 71 72 70 70
18 27 18 12 12 12 13 12 7 6 2 -4 -9 -7 2 7 4 9 11 17 20 22 21 23 19 23 28 24 26 33 33 34 33 33 34 32 31 29 32 37 43 49 54 58 59 60 61 62 63 64 64 64 65 68 68 68 69 68 69 71 72 74 74 75 75 76 77 77 77 77 77 77 77 77 76 76 75 75 75 75 75 73 72 73 71 70
20 21 19 15 11 12 10 11 7 5 4 -3 -9 -7 -4 5 9 10 15 11 12 17 24 21 22 29 23 20 26 27 32 30 33 33 32 32 29 39 35 37 40 43 56 58 57 58 60 62 63 64 64 64 63 66 66 67 67 66 67 68 70 71 72 71 74 76 77 77 77 76 77 77 77 76 76 76 76 75 75 75 74 74 74 72 72 71
21 21 21 17 11 10 10 8 10 8 5 1 -4 -8 -9 -1 11 11 10 14 16 18 18 22 21 27 30 30 30 31 31 28 31 30 30 28 34 30 33 27 39 53 57 56 57 56 59 63 63 64 66 66 65 67 67 66 65 65 66 68 70 69 71 69 72 75 77 76 77 77 77 76 77 77 76 76 75 74 73 73 74 74 73 71 71 72
43 20 22 20 21 14 14 12 11 9 5 -1 -2 -3 -10 -7 2 10 14 21 22 22 20 20 25 22 26 38 34 28 38 30 31 30 35 31 30 33 33 34 56 61 61 58 57 54 58 62 65 68 68 68 69 70 68 67 67 66 65 66 68 68 69 69 71 73 76 76 76 77 77 77 76 76 75 74 75 74 73 71 72 73 72 71 70 71
22 28 25 24 24 21 16 17 10 6 5 1 -2 1 2 0 -3 1 12 20 20 16 18 20 18 18 29 32 33 32 27 26 27 26 33 32 33 30 34 37 44 57 64 60 59 59 60 61 65 69 70 72 71 67 70 68 67 66 67 66 66 67 69 69 70 72 75 76 74 75 77 76 75 75 75 74 73 73 71 70 70 72 71 71 71 71
21 24 28 22 24 20 20 18 17 14 9 6 3 -1 4 1 -0 -0 9 19 18 30 31 22 20 27 29 36 30 30 31 37 33 32 28 32 37 32 33 36 60 62 66 64 62 61 61 67 69 71 72 72 69 68 72 72 68 67 68 68 66 67 69 69 69 71 74 74 74 75 76 76 75 75 75 75 73 72 71 69 71 71 71 72 70 70
24 25 29 28 25 23 25 30 20 20 13 10 6 3 -4 -4 -0 9 13 12 11 24 24 28 27 27 29 23 30 28 31 33 32 34 32 31 32 36 47 61 61 65 66 63 64 63 67 69 70 70 71 70 68 69 70 69 69 68 71 70 67 68 69 71 71 74 75 74 73 74 75 76 75 75 75 75 74 73 71 70 70 70 70 71 70 69
36 28 25 33 32 29 22 23 17 19 17 14 11 8 3 -1 4 8 9 8 27 16 13 26 35 27 26 28 30 30 29 34 35 37 33 34 35 33 41 66 67 65 66 65 64 64 65 67 69 70 71 70 70 70 70 70 69 70 71 70 68 67 68 70 73 75 75 75 75 76 75 76 76 76 76 76 76 73 72 72 72 72 72 70 69 67
31 27 25 24 25 24 22 20 18 17 17 15 13 14 11 7 5 7 17 10 23 15 13 27 33 29 27 21 23 30 32 34 29 33 32 33 31 39 47 53 61 62 64 63 65 66 66 66 70 71 71 71 70 70 71 71 71 72 72 71 71 68 69 72 75 74 74 76 76 76 77 77 77 77 76 75 75 74 73 73 73 73 73 72 70 68
35 30 30 25 25 23 23 21 20 15 17 17 17 17 15 12 10 7 6 5 7 26 21 22 32 25 21 21 21 26 33 30 29 34 35 34 29 43 37 42 56 58 61 62 65 65 68 68 71 72 72 73 71 72 71 72 72 71 71 71 69 72 73 74 75 75 75 76 76 76 77 78 78 77 76 76 75 75 75 74 74 73 73 72 70 69
31 31 35 29 30 25 23 24 22 19 17 16 17 18 14 11 13 14 10 8 14 13 7 10 26 26 23 32 30 30 33 30 34 29 29 37 34 30 33 29 37 41 44 58 67 66 68 69 72 73 72 72 72 72 73 73 73 72 70 72 72 74 73 73 75 75 75 76 77 77 78 77 77 77 76 76 75 75 75 74 74 74 74 73 72 70
30 31 32 32 29 28 27 26 24 21 17 16 16 16 17 16 17 13 15 14 15 22 22 16 21 17 21 26 27 31 31 33 31 33 35 36 30 36 36 34 36 42 41 45 57 67 69 69 72 72 72 72 72 73 73 74 73 73 72 73 72 71 72 74 75 75 76 77 78 77 77 77 77 76 76 75 75 74 74 74 74 74 74 73 71 71
31 30 31 33 33 32 29 26 25 24 23 19 18 15 15 15 16 15 11 17 17 14 17 19 18 22 26 28 25 28 28 31 31 29 33 36 47 38 38 36 35 36 41 53 59 67 67 67 70 73 72 72 72 72 72 73 73 74 73 74 75 74 73 74 75 76 77 77 78 77 77 77 76 76 76 75 74 74 73 73 73 73 73 71 71 70
29 31 33 35 32 31 30 28 28 29 26 24 26 21 21 18 18 15 14 15 17 21 20 20 22 28 25 23 23 26 27 31 35 41 39 40 40 46 34 37 34 35 35 34 49 54 68 68 68 71 72 73 73 72 72 74 74 74 75 75 75 75 75 76 76 77 77 78 77 77 77 76 75 75 75 75 75 74 74 73 73 73 72 72 72 70
24 33 33 36 31 31 32 32 30 28 24 32 26 25 23 20 19 21 20 15 17 20 20 20 20 23 27 25 27 29 34 31 31 34 29 28 38 36 41 35 41 44 44 50 58 52 65 70 70 72 72 72 71 72 72 73 74 74 75 75 75 75 76 75 76 77 78 77 77 77 76 75 75 74 75 75 74 74 73 73 73 73 73 72 72 70
28 30 37 35 35 36 35 35 30 27 34 28 26 25 26 28 31 29 28 24 20 19 23 23 26 24 28 26 24 29 33 27 27 36 37 27 28 32 26 27 35 33 36 46 60 66 69 68 69 70 72 71 71 71 72 73 74 74 75 76 76 75 75 76 77 77 77 77 77 76 75 75 75 73 75 74 73 73 73 73 73 73 73 72 71 70
36 39 38 36 39 34 33 30 29 36 32 30 29 40 38 41 43 42 37 37 36 40 31 24 27 26 24 24 23 25 29 27 32 30 24 27 34 29 22 25 28 31 34 55 52 64 72 71 71 71 73 72 72 71 72 73 74 75 75 75 75 75 76 76 76 77 77 77 77 76 76 75 74 73 73 73 73 72 72 72 72 72 73 71 70 69
39 38 41 37 37 35 30 31 33 33 32 36 48 43 42 40 40 41 45 39 38 31 29 32 31 28 29 25 26 28 31 31 30 30 31 25 34 35 41 40 37 40 45 52 64 67 72 71 71 72 70 72 72 71 73 73 74 75 76 75 75 76 76 75 76 76 77 77 76 76 76 75 74 73 73 73 72 72 71 71 71 72 72 71 69 68
32 36 41 39 37 37 35 32 31 33 37 50 47 43 42 41 39 41 39 34 40 51 51 54 51 53 49 27 28 32 29 25 26 31 36 37 34 35 36 38 37 35 48 59 63 67 69 70 71 70 72 73 71 72 73 74 75 75 75 75 74 74 74 74 75 75 76 76 76 76 75 74 73 72 71 71 71 71 71 71 71 71 71 70 70 68
30 30 34 36 37 35 35 34 33 35 36 47 46 43 40 40 39 39 33 28 57 55 53 54 54 53 54 55 49 31 30 29 22 32 30 31 33 32 35 49 49 42 48 59 61 67 70 71 72 72 72 71 72 73 73 73 74 75 74 71 72 72 73 74 74 76 77 76 76 75 74 73 73 72 71 71 72 72 71 71 70 71 69 69 68 66
30 31 32 32 32 34 36 34 33 36 42 43 42 42 41 39 40 38 34 43 54 55 55 56 54 54 54 54 51 36 35 34 33 37 32 31 26 27 44 52 52 49 55 60 64 70 70 72 72 71 71 72 72 70 71 73 74 73 72 73 73 73 73 74 76 76 77 76 75 74 73 72 72 71 70 71 71 71 70 69 70 69 68 67 65 64
28 31 33 33 29 28 30 31 31 34 40 41 42 40 41 39 37 41 52 56 55 52 55 54 55 56 57 55 53 50 47 40 30 31 32 38 48 53 52 54 55 59 63 65 69 69 70 69 70 69 67 70 69 70 72 74 74 73 73 73 73 74 74 75 76 77 76 75 74 73 72 71 72 71 70 71 72 71 70 70 71 70 67 66 65 64
28 28 27 27 31 28 32 30 27 29 43 42 44 40 46 43 42 51 52 51 50 51 51 53 55 57 58 57 54 53 53 47 37 36 40 48 49 59 60 60 62 61 61 66 67 68 68 68 67 67 71 70 71 73 73 74 73 73 73 73 74 74 75 76 76 76 75 74 74 72 72 71 71 70 71 71 71 71 70 70 69 69 68 66 64 63
34 28 28 29 33 27 26 27 29 32 46 43 43 41 50 51 51 55 51 50 53 53 55 55 56 58 59 59 57 54 51 51 52 53 53 53 58 62 63 64 65 66 70 69 68 68 66 69 71 71 70 70 72 73 74 75 74 74 74 74 75 75 75 75 75 75 74 73 73 72 71 70 69 70 70 70 71 71 70 69 68 68 67 65 64 63
43 37 38 28 31 30 31 31 51 48 46 44 45 49 51 52 52 53 54 52 53 53 57 55 57 58 59 57 57 58 58 53 55 54 59 60 60 62 65 67 67 66 65 64 65 69 70 71 72 72 73 73 74 74 74 74 74 74 74 75 75 75 74 74 74 73 72 72 72 71 70 70 70 69 69 70 70 70 69 69 68 67 67 66 65 64
50 50 53 48 46 47 50 49 49 49 47 47 44 46 45 47 49 51 52 53 54 55 56 56 57 57 57 61 56 59 61 62 62 62 64 65 64 66 67 67 68 69 69 70 72 72 72 72 72 72 72 72 73 73 75 75 75 74 74 74 74 74 74 73 73 72 72 72 71 70 70 69 69 70 69 70 70 69 69 68 67 66 65 65 65 65
52 48 45 45 51 41 43 51 52 49 48 47 46 46 47 47 49 51 54 55 54 54 55 57 59 60 59 61 60 62 62 62 64 65 67 68 67 67 67 68 68 69 70 70 71 70 70 69 69 70 71 72 72 71 71 73 72 73 74 74 73 73 73 73 72 72 71 71 70 70 69 69 67 67 69 69 69 69 68 67 66 66 66 66 65 65
48 51 48 49 50 44 48 52 54 53 53 51 49 49 48 49 50 51 52 53 54 54 54 58 61 61 59 58 60 61 62 64 66 65 66 67 68 68 69 70 71 69 68 69 69 70 70 70 70 71 71 71 72 72 72 71 72 72 72 70 70 71 72 71 71 70 70 69 69 68 68 67 68 68 67 68 67 66 67 67 67 66 67 66 66 65
51 51 48 49 48 52 54 53 51 51 50 52 53 53 53 51 51 51 51 52 52 52 53 53 55 61 64 59 63 60 60 60 60 63 62 63 64 66 67 69 70 70 70 70 71 71 71 72 71 71 71 71 71 71 71 71 70 70 71 71 72 72 71 70 69 69 69 68 66 66 67 67 68 67 67 66 61 57 54 54 61 67 68 68 68 69
47 48 52 51 49 49 49 53 51 46 49 51 52 54 53 52 53 52 52 51 50 52 52 51 51 52 52 53 55 56 59 60 60 60 60 61 64 65 66 66 66 67 68 68 68 69 70 70 70 69 69 70 70 70 71 71 71 70 69 71 70 70 70 69 68 67 66 65 64 64 65 66 66 66 66 62 59 58 55 48 43 47 62 63 54 50
51 50 50 48 48 48 54 55 56 55 54 53 54 55 56 55 54 52 52 52 52 51 51 54 53 51 52 52 53 53 56 57 58 58 58 60 63 64 64 65 64 64 65 67 68 68 69 70 70 70 70 70 70 70 69 69 68 68 67 70 70 69 70 69 67 65 63 64 62 61 64 64 65 66 67 63 61 61 59 58 56 42 41 46 48 46